Location: Tamazert
(32.6352°N, 5.2072°W)
Time: 22:50:55
(UTC+00:00)

OAO 1 - Pass Details

Date: 22 May 2022
Orbit: 774 x 783 km, 35.0° (Epoch: 24 June)

Event Time Altitude Azimuth Distance (km) Brightness Sun altitude
Exits shadow 03:45:34 13° 284° (WNW) 2,090 6.4 -17.3°
Maximum altitude 03:50:26 84° 196° (SSW) 780 4.4 -16.5°
Drops below altitude 10° 03:55:54 10° 109° (ESE) 2,308 7.4 -15.6°
Sets 03:58:22 0° 109° (ESE) 3,233 8.2 -15.2°
